[[{"header":{"parameterUnit":"m.s-1","parameterCategory":1,"la1":30.2991,"la2":30.254,"lo1":-89.0895,"lo2":-89.0444,"dy":0.0017,"dx":0.0017,"nx":28,"ny":28,"refTime":"2023-09-05T09:00:00:Z","depth":0,"parameterNumber":2,"parameterNumberName":"U-component_of_WINDS"},"data":[0,0,0,0,0,0,0,0,0,0,0,0,0,0,0,0,0,0,0,0,0,0,0,0,0,0,0,0,0,0,0,0,0,0,0,0,0,0,0,0,0,0,0,0,0,0,0,0,0,0,0,0,0,0,0,0,0,0,-4.3881,-4.3881,0,-4.392,-4.3921,-4.3921,-4.3847,-4.3845,-4.3842,-4.384,-4.3877,-4.388,-4.3883,0,0,0,0,0,0,0,0,0,0,0,0,0,-4.3738,-4.3741,-4.3881,-4.3881,-4.3882,-4.392,-4.3921,-4.3921,-4.3848,-4.3845,-4.3842,-4.3839,-4.3876,-4.388,-4.3884,0,0,0,0,0,0,0,0,0,0,0,0,0,-4.3791,-4.3742,-4.3881,-4.385,-4.3847,-4.392,-4.3921,-4.3921,-4.3848,-4.3845,-4.3841,-4.3838,-4.3875,-4.3879,-4.3884,-4.3987,0,0,-4.3899,-4.3901,0,0,0,0,0,0,0,0,-4.3788,-4.3796,-4.3854,-4.3852,-4.3849,-4.3875,-4.3884,-4.3943,-4.3849,-4.3848,-4.384,-4.3836,-4.3879,-4.3883,-4.3899,-4.3989,-4.3991,-4.3899,-4.3902,-4.3904,-4.3906,0,0,0,0,0,0,0,-4.3784,-4.3794,-4.3896,-4.3855,-4.3852,-4.3833,-4.3836,-4.3895,-4.3883,-4.3848,-4.3842,-4.3848,-4.3877,-4.3894,-4.3899,-4.3991,-4.3899,-4.3904,-4.3907,-4.3909,-4.4167,-4.4171,0,0,0,0,0,0,-4.3785,-4.3792,-4.3895,-4.3897,-4.3809,-4.3838,-4.3842,-4.3871,-4.3883,-4.3881,-4.3851,-4.3845,-4.3888,-4.3893,-4.39,-4.402,-4.3904,-4.3909,-4.3912,-4.4163,-4.4168,-4.4172,0,0,0,0,0,0,-4.3782,-4.3795,-4.3893,-4.3843,-4.3854,-4.3845,-4.3877,-4.3873,-4.389,-4.3885,-4.3883,-4.3871,-4.3885,-4.3893,-4.3966,-4.402,-4.3911,-4.3916,-4.4158,-4.4165,-4.417,-4.4261,0,0,0,0,0,0,-4.3779,-4.3795,-4.3834,-4.3845,-4.3857,-4.396,-4.3881,-4.3877,-4.3899,-4.3891,-4.3903,-4.3901,-4.3883,-4.3959,-4.3971,-4.4025,-4.3919,-4.4153,-4.4161,-4.4168,-4.4253,-4.4269,-4.4283,0,0,0,0,0,-4.3774,-4.3858,-4.3837,-4.385,-4.3907,-4.3963,-4.397,-4.3948,-4.3904,-4.3943,-4.394,-4.3901,-4.4013,-4.3967,-4.398,-4.4036,-4.415,-4.4159,-4.4168,-4.4246,-4.4266,-4.4283,0,0,0,0,0,0,-4.3853,-4.3859,-4.3835,-4.3926,-4.3945,-4.3951,-4.3999,-4.397,-4.4,-4.3991,-4.3961,-4.3965,-4.4043,-4.4047,-4.3996,-4.4136,-4.4074,-4.4086,-4.413,-4.4148,-4.4163,-4.4159,-4.3924,0,0,0,0,0,-4.3881,-4.3928,-4.393,-4.4009,-4.402,-4.4009,-4.4032,-4.4014,-4.4032,-4.4039,-4.4041,-4.4059,-4.4098,-4.4124,-4.416,-4.4255,-4.4255,-4.43,-4.4315,-4.4327,-4.4337,-4.4385,-4.4404,-4.4201,-4.4201,-4.4201,0,0,-4.3939,-4.3948,-4.3979,-4.4025,-4.4038,-4.4085,-4.4016,-4.4069,-4.4103,-4.4046,-4.4115,-4.4118,-4.4136,-4.422,-4.4257,-4.4226,-4.4393,-4.4339,-4.4349,-4.4351,-4.4396,-4.4415,-4.4432,-4.4207,-4.4206,-4.4205,0,0,-4.4068,-4.4081,-4.4148,-4.4162,-4.4183,-4.4174,-4.4191,-4.4202,-4.4202,-4.4271,-4.4229,-4.4269,-4.4338,-4.4352,-4.4368,-4.4504,-4.4468,-4.4517,-4.4594,-4.4642,-4.4658,-4.4672,-4.4717,-4.4734,-4.4527,-4.4527,-4.4528,0,-4.4137,-4.4207,-4.4185,-4.4241,-4.4262,-4.4216,-4.4281,-4.4296,-4.4327,-4.4342,-4.4307,-4.4392,-4.4401,-4.4487,-4.452,-4.4536,-4.4552,-4.4513,-4.4658,-4.4671,-4.4684,-4.4727,-4.4745,-4.4533,-4.4532,-4.4532,-4.4531,0,-4.429,-4.4339,-4.4391,-4.4422,-4.445,-4.4511,-4.4496,-4.4526,-4.4506,-4.4502,-4.4572,-4.4582,-4.4618,-4.4638,-4.4618,-4.4721,-4.47,-4.4663,-4.4599,-4.4709,-4.4749,-4.4766,-4.4541,-4.4539,-4.4537,-4.4536,0,0,-4.4466,-4.4487,-4.4505,-4.4518,-4.4539,-4.4576,-4.4635,-4.4671,-4.4696,-4.472,-4.4767,-4.4827,-4.4792,-4.481,-4.4792,-4.4835,-4.4939,-4.4791,-4.4791,-4.4816,-4.505,-4.5075,-4.5095,-4.4918,-4.4921,-4.4923,-4.5047,0,-4.4592,-4.4693,-4.4676,-4.4774,-4.4818,-4.4775,-4.4826,-4.4843,-4.4841,-4.4878,-4.4875,-4.4917,-4.4869,-4.488,-4.4921,-4.4918,-4.4985,-4.4909,-4.4958,-4.496,-4.4951,-4.5116,-4.5144,-4.526,-4.5063,-4.5066,-4.5067,0,-4.4751,-4.4781,-4.4884,-4.4896,-4.4914,-4.496,-4.4992,-4.5029,-4.5047,-4.5042,-4.5064,-4.5039,-4.5096,-4.5035,-4.5112,-4.5061,-4.508,-4.5082,-4.5086,-4.5086,-4.5017,-4.5118,-4.5296,-4.5312,-4.5092,-4.509,-4.5089,0,-4.4865,-4.4932,-4.5002,-4.5015,-4.5032,-4.5065,-4.5074,-4.5089,-4.5112,-4.514,-4.5154,-4.5189,-4.5207,-4.5234,-4.5217,-4.5175,-4.5297,-4.5235,-4.5292,-4.5292,-4.5316,-4.5314,-4.5496,-4.5335,-4.5335,-4.5335,-4.5334,0,-4.5005,-4.5069,-4.5053,-4.5095,-4.5165,-4.5145,-4.5214,-4.5217,-4.5232,-4.5273,-4.5239,-4.5278,-4.5257,-4.5294,-4.5283,-4.5346,-4.5356,-4.5352,-4.5347,-4.5353,-4.5353,-4.5362,-4.5352,-4.5339,-4.5338,-4.5337,-4.5337,0,-4.5143,-4.5136,-4.5208,-4.5219,-4.5223,-4.5274,-4.5283,-4.5321,-4.5318,-4.5371,-4.5382,-4.5376,-4.5418,-4.5406,-4.5452,-4.5444,-4.5524,-4.5511,-4.5517,-4.5513,-4.5569,-4.5563,-4.5761,-4.5785,-4.5612,-4.5614,-4.5615,0,-4.5231,-4.5279,-4.5295,-4.5321,-4.5332,-4.5375,-4.5398,-4.5381,-4.5406,-4.5431,-4.5467,-4.5507,-4.5537,-4.5607,-4.5605,-4.564,-4.5625,-4.5693,-4.563,-4.5633,-4.5622,-4.5618,-4.5621,-4.5703,-4.5705,-4.5707,-4.5708,0,-4.5386,-4.5381,-4.5416,-4.5452,-4.5481,-4.5507,-4.553,-4.5553,-4.5537,-4.5568,-4.5611,-4.5635,-4.5682,-4.5721,-4.5753,-4.576,-4.5731,-4.5729,-4.5743,-4.5747,-4.5748,-4.5745,-4.5547,-4.5723,-4.5722,-4.5721,-4.572,-4.5719,-4.5499,-4.5539,-4.5557,-4.5598,-4.5614,-4.5637,-4.5673,-4.5675,-4.5711,-4.5749,-4.5736,-4.5785,-4.5802,-4.5842,-4.5854,-4.5892,-4.5866,-4.5887,-4.5892,-4.5897,-4.5902,-4.5746,-4.5898,-4.5897,-4.5897,-4.5897,-4.5896,0,-4.565,-4.566,-4.5698,-4.5732,-4.5764,-4.5737,-4.5761,-4.5789,-4.5833,-4.5852,-4.5883,-4.5932,-4.597,-4.5973,-4.6008,-4.6038,-4.6025,-4.6047,-4.6043,-4.6044,-4.5925,-4.5907,-4.6057,-4.6057,-4.6057,-4.6057,-4.6057,-4.6057,-4.5732,-4.5798,-4.5794,-4.5867,-4.5876,-4.5925,-4.5941,-4.5961,-4.5976,-4.6033,-4.6064,-4.6067,-4.6079,-4.6115,-4.6148,-4.6148,-4.6161,-4.6187,-4.6182,-4.6069,-4.6053,-4.6038,-4.6021,-4.6191,-4.6192,-4.6297,-4.6298,-4.6299]},{"header":{"parameterUnit":"m.s-1","parameterCategory":1,"la1":30.2991,"la2":30.254,"lo1":-89.0895,"lo2":-89.0444,"dy":0.0017,"dx":0.0017,"nx":28,"ny":28,"refTime":"2023-09-05T09:00:00:Z","depth":0,"parameterNumber":3,"parameterNumberName":"V-component_of_WINDS"},"data":[0,0,0,0,0,0,0,0,0,0,0,0,0,0,0,0,0,0,0,0,0,0,0,0,0,0,0,0,0,0,0,0,0,0,0,0,0,0,0,0,0,0,0,0,0,0,0,0,0,0,0,0,0,0,0,0,0,0,1.8006,1.8006,0,1.8012,1.8012,1.8012,1.7982,1.7982,1.7981,1.798,1.7985,1.7986,1.7987,0,0,0,0,0,0,0,0,0,0,0,0,0,1.7969,1.7969,1.8006,1.8006,1.8006,1.8012,1.8012,1.8012,1.7983,1.7982,1.7981,1.798,1.7985,1.7986,1.7987,0,0,0,0,0,0,0,0,0,0,0,0,0,1.7981,1.797,1.8006,1.7992,1.7991,1.8012,1.8012,1.8012,1.7983,1.7982,1.798,1.7979,1.7985,1.7986,1.7987,1.8022,0,0,1.7992,1.7992,0,0,0,0,0,0,0,0,1.798,1.7982,1.7994,1.7993,1.7992,1.7995,1.8001,1.8015,1.7983,1.7986,1.798,1.7978,1.799,1.799,1.7994,1.8022,1.8022,1.7992,1.7993,1.7993,1.7994,0,0,0,0,0,0,0,1.7979,1.7982,1.8008,1.7994,1.7993,1.7985,1.7986,1.8003,1.7995,1.7986,1.7983,1.7985,1.7989,1.7993,1.7994,1.8022,1.7992,1.7993,1.7994,1.7994,1.8078,1.8079,0,0,0,0,0,0,1.798,1.7981,1.8008,1.8008,1.7983,1.7987,1.7988,1.7995,1.7994,1.7993,1.7986,1.7983,1.7991,1.7993,1.7994,1.8034,1.7993,1.7995,1.7995,1.8077,1.8078,1.808,0,0,0,0,0,0,1.798,1.7983,1.8008,1.7994,1.7997,1.7989,1.7998,1.7996,1.8,1.7995,1.7993,1.7992,1.799,1.7992,1.8015,1.8034,1.7995,1.7996,1.8075,1.8077,1.8079,1.8114,0,0,0,0,0,0,1.7979,1.7983,1.7996,1.7995,1.7998,1.8028,1.7999,1.7997,1.8003,1.8,1.8,1.7999,1.799,1.8013,1.8017,1.8035,1.7998,1.8073,1.8076,1.8079,1.8111,1.8117,1.8122,0,0,0,0,0,1.7977,1.8005,1.7997,1.8,1.8014,1.803,1.8031,1.802,1.8005,1.8017,1.8014,1.7999,1.8032,1.8016,1.8019,1.8039,1.8072,1.8075,1.8078,1.8109,1.8116,1.8122,0,0,0,0,0,0,1.8008,1.8005,1.7995,1.8023,1.8027,1.8025,1.804,1.8028,1.8036,1.8033,1.8019,1.8019,1.8045,1.8044,1.8026,1.8072,1.8049,1.8053,1.8071,1.8078,1.8083,1.8082,1.7999,0,0,0,0,0,1.8018,1.8032,1.8028,1.8053,1.8056,1.8048,1.8054,1.8046,1.8049,1.805,1.8048,1.8052,1.8063,1.807,1.808,1.8111,1.8111,1.8126,1.8132,1.8136,1.814,1.8156,1.8163,1.809,1.809,1.809,0,0,1.8039,1.8039,1.8048,1.8059,1.8061,1.8075,1.8049,1.8065,1.8075,1.8053,1.8074,1.8073,1.8076,1.8103,1.8115,1.8103,1.816,1.814,1.8144,1.8145,1.816,1.8167,1.8173,1.8092,1.8092,1.8092,0,0,1.8083,1.8085,1.8106,1.8109,1.8112,1.8107,1.8113,1.8112,1.8111,1.8132,1.8115,1.8128,1.8147,1.815,1.8154,1.8201,1.8187,1.8205,1.8233,1.8249,1.8255,1.826,1.8276,1.8282,1.8208,1.8209,1.8209,0,1.8108,1.8129,1.8118,1.8136,1.8141,1.8122,1.8143,1.8147,1.8153,1.8157,1.8144,1.8169,1.817,1.8197,1.8209,1.8213,1.8218,1.8204,1.8255,1.826,1.8264,1.828,1.8286,1.8211,1.821,1.821,1.821,0,1.816,1.8175,1.8191,1.8199,1.8206,1.8225,1.8217,1.8226,1.8218,1.8214,1.8236,1.8237,1.8246,1.8252,1.8244,1.8279,1.8272,1.8257,1.8234,1.8273,1.8288,1.8293,1.8214,1.8213,1.8212,1.8212,0,0,1.8222,1.8224,1.8231,1.8234,1.8237,1.8248,1.8267,1.8277,1.8284,1.829,1.8305,1.8323,1.8309,1.8314,1.8306,1.832,1.8357,1.8304,1.8304,1.8313,1.8395,1.8405,1.8412,1.8349,1.835,1.8351,1.8395,0,1.8266,1.8298,1.8289,1.8321,1.8334,1.8317,1.8333,1.8337,1.8334,1.8345,1.8342,1.8355,1.8337,1.8339,1.8353,1.835,1.8373,1.8347,1.8362,1.8363,1.836,1.842,1.843,1.8472,1.84,1.8401,1.8402,0,1.832,1.8328,1.8362,1.8363,1.8368,1.8383,1.8392,1.8403,1.8407,1.8404,1.841,1.8399,1.8417,1.8395,1.842,1.8402,1.8408,1.8407,1.8409,1.8409,1.8384,1.8421,1.8485,1.8491,1.8411,1.841,1.8409,0,1.8362,1.8381,1.8404,1.8407,1.8409,1.842,1.8422,1.8424,1.8431,1.8439,1.8443,1.8453,1.8458,1.8466,1.8458,1.8442,1.8484,1.8461,1.8481,1.8482,1.849,1.8489,1.8555,1.8495,1.8495,1.8495,1.8495,0,1.8411,1.8432,1.8423,1.8436,1.8459,1.8449,1.8472,1.8472,1.8475,1.8488,1.8474,1.8486,1.8476,1.8487,1.8481,1.8503,1.8505,1.8503,1.8501,1.8504,1.8504,1.8506,1.8503,1.8497,1.8496,1.8496,1.8496,0,1.846,1.8455,1.8479,1.8479,1.848,1.8497,1.8497,1.851,1.8507,1.8524,1.8527,1.8522,1.8535,1.8528,1.8542,1.8538,1.8565,1.856,1.8564,1.8562,1.8583,1.858,1.8651,1.866,1.8596,1.8597,1.8597,0,1.8491,1.8507,1.851,1.8518,1.852,1.8534,1.8541,1.8532,1.854,1.8546,1.8558,1.857,1.8579,1.86,1.8598,1.8608,1.8602,1.8627,1.8604,1.8606,1.8602,1.86,1.8602,1.8631,1.8631,1.8632,1.8633,0,1.8547,1.8544,1.8555,1.8565,1.8574,1.8581,1.8588,1.8595,1.8587,1.8596,1.861,1.8617,1.8631,1.8643,1.8652,1.8653,1.8641,1.864,1.8645,1.8648,1.8649,1.8648,1.8575,1.8638,1.8638,1.8637,1.8637,1.8637,1.8588,1.8601,1.8605,1.8618,1.8622,1.8628,1.864,1.8639,1.865,1.8661,1.8655,1.8671,1.8675,1.8686,1.8689,1.8701,1.8691,1.8699,1.87,1.8702,1.8705,1.8648,1.8702,1.8702,1.8702,1.8702,1.8702,0,1.8642,1.8644,1.8656,1.8665,1.8675,1.8664,1.8671,1.868,1.8694,1.8699,1.8708,1.8724,1.8736,1.8734,1.8745,1.8755,1.875,1.8758,1.8757,1.8757,1.8713,1.8707,1.8762,1.8762,1.8762,1.8762,1.8762,1.8762,1.8671,1.8693,1.869,1.8714,1.8716,1.8731,1.8736,1.8742,1.8746,1.8764,1.8774,1.8773,1.8776,1.8786,1.8797,1.8796,1.88,1.881,1.8808,1.8766,1.876,1.8754,1.8749,1.8811,1.8812,1.885,1.8851,1.8851]}]]